Location: Brantley
(31.5822°N, 86.2569°W)
Time: 00:47:48
(UTC+00:00)

Vanguard 3 - Pass Details

Date: 18 February 2026
Orbit: 507 x 3205 km, 33.4° (Epoch: 10 March)

Event Time Altitude Azimuth Distance (km) Brightness Sun altitude
Rises 21:53:48 0° 251° (WSW) 5,917 13.1 19.3°
Reaches altitude 10° 21:58:23 10° 251° (WSW) 4,478 13.2 18.4°
Maximum altitude 22:09:35 83° 166° (SSE) 1,275 8.5 16.3°
Drops below altitude 10° 22:15:43 10° 78° (ENE) 2,551 9.2 15.1°
Sets 22:17:42 0° 78° (ENE) 3,275 9.6 14.7°
